Orbital Elements at Epoch 2459200.5 (2020-Dec-17.0) TDB
Reference: JPL 33 (heliocentric ecliptic J2000)
Element | Value | Uncertainty (1-sigma) | Units |
e | .1146178573664887 | 3.2987e-08 | |
a | 2.279092527864224 | 7.3834e-09 | au |
q | 2.017867825580452 | 7.4736e-08 | au |
i | 4.470682799046189 | 3.6379e-06 | deg |
node | 30.81593264502061 | 5.1579e-05 | deg |
peri | 351.2755884647739 | 5.4574e-05 | deg |
M | 147.9830934528586 | 1.7761e-05 | deg |
tp | 2458683.904089799748 (2019-Jul-19.40408980) | 6.1612e-05 | TDB |
period | 1256.728206802452 3.44 | 6.107e-06 1.672e-08 | d yr |
n | .2864581204204555 | 1.392e-09 | deg/d |
Q | 2.540317230147996 | 8.2297e-09 | au |
|
| | Orbit Determination Parameters
Additional Information
|